Time,TemperatureF,DewpointF,PressureIn,WindDirection,WindDirectionDegrees,WindSpeedMPH,WindSpeedGustMPH,Humidity,HourlyPrecipIn,Conditions,Clouds,dailyrainin,SoftwareType,DateUTC
2013-03-13 00:03:00,63.0,-99.9,30.13,SSW,197,0.0,1.0,-999,-99.99,,,-99.99,,2013-03-13 07:03:00,
2013-03-13 00:33:00,62.0,-99.9,30.13,WNW,302,1.0,1.0,-999,-99.99,,,-99.99,,2013-03-13 07:33:00,
2013-03-13 00:43:00,62.0,-99.9,30.13,WNW,302,1.0,1.0,-999,-99.99,,,-99.99,,2013-03-13 07:43:00,
2013-03-13 00:53:00,62.0,-99.9,30.12,West,265,0.0,0.0,-999,-99.99,,,-99.99,,2013-03-13 07:53:00,
2013-03-13 01:23:00,61.0,-99.9,30.13,ENE,68,0.0,0.0,-999,-99.99,,,-99.99,,2013-03-13 08:23:00,
2013-03-13 01:33:00,60.0,-99.9,30.12,NW,315,0.0,0.0,-999,-99.99,,,-99.99,,2013-03-13 08:33:00,
2013-03-13 01:43:00,60.0,-99.9,30.12,NW,315,0.0,0.0,-999,-99.99,,,-99.99,,2013-03-13 08:43:00,
2013-03-13 01:54:00,60.0,-99.9,30.12,SW,225,0.0,0.0,-999,-99.99,,,-99.99,,2013-03-13 08:54:00,
2013-03-13 02:02:00,60.0,-99.9,30.12,SW,225,0.0,0.0,-999,-99.99,,,-99.99,,2013-03-13 09:02:00,
2013-03-13 02:13:00,60.0,-99.9,30.12,SW,225,0.0,0.0,-999,-99.99,,,-99.99,,2013-03-13 09:13:00,
2013-03-13 02:23:00,60.0,-99.9,30.12,SW,225,0.0,0.0,-999,-99.99,,,-99.99,,2013-03-13 09:23:00,
2013-03-13 04:00:00,57.0,-99.9,30.10,NE,45,0.0,0.0,-999,-99.99,,,-99.99,,2013-03-13 11:00:00,
2013-03-13 04:02:00,57.0,-99.9,30.08,ESE,113,0.0,1.0,-999,-99.99,,,-99.99,,2013-03-13 11:02:00,
2013-03-13 04:13:00,57.0,-99.9,30.08,ESE,113,0.0,1.0,-999,-99.99,,,-99.99,,2013-03-13 11:13:00,
2013-03-13 04:23:00,57.0,-99.9,30.10,NE,45,0.0,0.0,-999,-99.99,,,-99.99,,2013-03-13 11:23:00,
2013-03-13 04:32:00,57.0,-99.9,30.10,NE,45,0.0,0.0,-999,-99.99,,,-99.99,,2013-03-13 11:32:00,
2013-03-13 04:42:00,57.0,-99.9,30.10,NE,45,0.0,0.0,-999,-99.99,,,-99.99,,2013-03-13 11:42:00,
2013-03-13 04:53:00,57.0,-99.9,30.10,NE,45,0.0,0.0,-999,-99.99,,,-99.99,,2013-03-13 11:53:00,
2013-03-13 05:33:00,55.0,-99.9,30.09,ESE,113,0.0,0.0,-999,-99.99,,,-99.99,,2013-03-13 12:33:00,
2013-03-13 05:40:00,55.0,-99.9,30.10,South,180,0.0,0.0,-999,-99.99,,,-99.99,,2013-03-13 12:40:00,
2013-03-13 05:42:00,55.0,-99.9,30.09,ESE,113,0.0,0.0,-999,-99.99,,,-99.99,,2013-03-13 12:42:00,
2013-03-13 05:53:00,55.0,-99.9,30.09,ESE,113,0.0,0.0,-999,-99.99,,,-99.99,,2013-03-13 12:53:00,
2013-03-13 06:02:00,55.0,-99.9,30.10,South,180,0.0,0.0,-999,-99.99,,,-99.99,,2013-03-13 13:02:00,
2013-03-13 06:12:00,55.0,-99.9,30.10,South,180,0.0,0.0,-999,-99.99,,,-99.99,,2013-03-13 13:12:00,
2013-03-13 06:22:00,55.0,-99.9,30.10,South,180,0.0,0.0,-999,-99.99,,,-99.99,,2013-03-13 13:22:00,
2013-03-13 06:33:00,55.0,-99.9,30.10,South,180,0.0,0.0,-999,-99.99,,,-99.99,,2013-03-13 13:33:00,
2013-03-13 07:03:00,54.0,-99.9,30.10,SSW,203,0.0,0.0,-999,-99.99,,,-99.99,,2013-03-13 14:03:00,
2013-03-13 07:12:00,54.0,-99.9,30.10,SSW,203,0.0,0.0,-999,-99.99,,,-99.99,,2013-03-13 14:12:00,
2013-03-13 07:22:00,54.0,-99.9,30.10,West,270,0.0,0.0,-999,-99.99,,,-99.99,,2013-03-13 14:22:00,
2013-03-13 07:34:00,54.0,-99.9,30.09,West,259,1.0,5.0,-999,-99.99,,,-99.99,,2013-03-13 14:34:00,
2013-03-13 07:43:00,54.0,-99.9,30.09,West,259,1.0,5.0,-999,-99.99,,,-99.99,,2013-03-13 14:43:00,
2013-03-13 07:53:00,54.0,-99.9,30.10,SW,225,0.0,1.0,-999,-99.99,,,-99.99,,2013-03-13 14:53:00,
2013-03-13 08:03:00,53.0,-99.9,30.09,West,278,2.0,2.0,-999,-99.99,,,-99.99,,2013-03-13 15:03:00,
2013-03-13 08:12:00,53.0,-99.9,30.09,West,278,2.0,2.0,-999,-99.99,,,-99.99,,2013-03-13 15:12:00,
2013-03-13 08:22:00,54.0,-99.9,30.10,WSW,247,1.0,2.0,-999,-99.99,,,-99.99,,2013-03-13 15:22:00,
2013-03-13 08:33:00,54.0,-99.9,30.11,WNW,293,2.0,2.0,-999,-99.99,,,-99.99,,2013-03-13 15:33:00,
2013-03-13 08:43:00,54.0,-99.9,30.11,WNW,293,2.0,2.0,-999,-99.99,,,-99.99,,2013-03-13 15:43:00,
2013-03-13 08:53:00,55.0,-99.9,30.11,SSW,202,1.0,1.0,-999,-99.99,,,-99.99,,2013-03-13 15:53:00,
2013-03-13 09:03:00,55.0,-99.9,30.10,SSW,194,1.0,1.0,-999,-99.99,,,-99.99,,2013-03-13 16:03:00,
2013-03-13 09:12:00,55.0,-99.9,30.10,SSW,194,1.0,1.0,-999,-99.99,,,-99.99,,2013-03-13 16:12:00,
2013-03-13 09:22:00,55.0,-99.9,30.10,SSW,194,1.0,1.0,-999,-99.99,,,-99.99,,2013-03-13 16:22:00,
2013-03-13 09:33:00,57.0,-99.9,30.12,SSE,164,2.0,5.0,-999,-99.99,,,-99.99,,2013-03-13 16:33:00,
2013-03-13 09:42:00,57.0,-99.9,30.12,SSE,164,2.0,5.0,-999,-99.99,,,-99.99,,2013-03-13 16:42:00,
2013-03-13 09:52:00,58.0,-99.9,30.12,South,186,2.0,4.0,-999,-99.99,,,-99.99,,2013-03-13 16:52:00,
2013-03-13 10:03:00,59.0,-99.9,30.12,South,176,4.0,5.0,-999,-99.99,,,-99.99,,2013-03-13 17:03:00,
2013-03-13 10:12:00,59.0,-99.9,30.12,South,176,4.0,5.0,-999,-99.99,,,-99.99,,2013-03-13 17:12:00,
2013-03-13 10:23:00,59.0,-99.9,30.13,South,190,2.0,5.0,-999,-99.99,,,-99.99,,2013-03-13 17:23:00,
2013-03-13 10:33:00,59.0,-99.9,30.15,SSW,212,3.0,5.0,-999,-99.99,,,-99.99,,2013-03-13 17:33:00,
2013-03-13 10:43:00,59.0,-99.9,30.15,SSW,212,3.0,5.0,-999,-99.99,,,-99.99,,2013-03-13 17:43:00,
2013-03-13 10:53:00,60.0,-99.9,30.14,South,174,3.0,6.0,-999,-99.99,,,-99.99,,2013-03-13 17:53:00,
2013-03-13 11:03:00,62.0,-99.9,30.15,South,176,3.0,5.0,-999,-99.99,,,-99.99,,2013-03-13 18:03:00,
2013-03-13 11:13:00,62.0,-99.9,30.15,South,176,3.0,5.0,-999,-99.99,,,-99.99,,2013-03-13 18:13:00,
2013-03-13 11:22:00,62.0,-99.9,30.16,SSW,203,2.0,6.0,-999,-99.99,,,-99.99,,2013-03-13 18:22:00,
2013-03-13 11:33:00,62.0,-99.9,30.16,SSW,203,2.0,6.0,-999,-99.99,,,-99.99,,2013-03-13 18:33:00,
2013-03-13 11:43:00,62.0,-99.9,30.16,SSW,203,2.0,6.0,-999,-99.99,,,-99.99,,2013-03-13 18:43:00,
2013-03-13 11:52:00,64.0,-99.9,30.14,ESE,121,1.0,3.0,-999,-99.99,,,-99.99,,2013-03-13 18:52:00,
2013-03-13 12:03:00,66.0,-99.9,30.13,South,171,3.0,5.0,-999,-99.99,,,-99.99,,2013-03-13 19:03:00,
2013-03-13 12:12:00,66.0,-99.9,30.13,South,171,3.0,5.0,-999,-99.99,,,-99.99,,2013-03-13 19:12:00,
2013-03-13 12:22:00,67.0,-99.9,30.12,SSW,199,2.0,7.0,-999,-99.99,,,-99.99,,2013-03-13 19:22:00,
2013-03-13 12:32:00,67.0,-99.9,30.13,SE,134,4.0,6.0,-999,-99.99,,,-99.99,,2013-03-13 19:32:00,
2013-03-13 12:43:00,67.0,-99.9,30.13,SE,134,4.0,6.0,-999,-99.99,,,-99.99,,2013-03-13 19:43:00,
2013-03-13 12:50:00,70.0,-99.9,30.12,SW,223,5.0,9.0,-999,-99.99,,,-99.99,,2013-03-13 19:50:00,
2013-03-13 12:53:00,69.0,-99.9,30.11,South,177,3.0,6.0,-999,-99.99,,,-99.99,,2013-03-13 19:53:00,
2013-03-13 13:02:00,70.0,-99.9,30.12,SW,223,5.0,9.0,-999,-99.99,,,-99.99,,2013-03-13 20:02:00,
2013-03-13 13:13:00,70.0,-99.9,30.12,SW,223,5.0,9.0,-999,-99.99,,,-99.99,,2013-03-13 20:13:00,
2013-03-13 13:23:00,70.0,-99.9,30.12,SW,223,5.0,9.0,-999,-99.99,,,-99.99,,2013-03-13 20:23:00,
2013-03-13 13:33:00,70.0,-99.9,30.12,SW,223,5.0,9.0,-999,-99.99,,,-99.99,,2013-03-13 20:33:00,
2013-03-13 13:42:00,70.0,-99.9,30.12,SW,223,5.0,9.0,-999,-99.99,,,-99.99,,2013-03-13 20:42:00,
2013-03-13 14:02:00,71.0,-99.9,30.09,SW,221,5.0,9.0,-999,-99.99,,,-99.99,,2013-03-13 21:02:00,
2013-03-13 14:12:00,71.0,-99.9,30.09,SW,221,5.0,9.0,-999,-99.99,,,-99.99,,2013-03-13 21:12:00,
2013-03-13 14:22:00,71.0,-99.9,30.09,SW,221,5.0,9.0,-999,-99.99,,,-99.99,,2013-03-13 21:22:00,
2013-03-13 14:34:00,72.0,-99.9,30.09,South,183,5.0,8.0,-999,-99.99,,,-99.99,,2013-03-13 21:34:00,
2013-03-13 14:42:00,72.0,-99.9,30.09,South,183,5.0,8.0,-999,-99.99,,,-99.99,,2013-03-13 21:42:00,
2013-03-13 14:52:00,73.0,-99.9,30.08,South,170,5.0,6.0,-999,-99.99,,,-99.99,,2013-03-13 21:52:00,
2013-03-13 15:02:00,73.0,-99.9,30.09,South,185,4.0,9.0,-999,-99.99,,,-99.99,,2013-03-13 22:02:00,
2013-03-13 15:12:00,73.0,-99.9,30.09,South,185,4.0,9.0,-999,-99.99,,,-99.99,,2013-03-13 22:12:00,
2013-03-13 15:22:00,73.0,-99.9,30.09,South,173,6.0,10.0,-999,-99.99,,,-99.99,,2013-03-13 22:22:00,
2013-03-13 15:32:00,73.0,-99.9,30.09,SSE,168,4.0,9.0,-999,-99.99,,,-99.99,,2013-03-13 22:32:00,
2013-03-13 15:42:00,73.0,-99.9,30.09,SSE,168,4.0,9.0,-999,-99.99,,,-99.99,,2013-03-13 22:42:00,
2013-03-13 15:52:00,73.0,-99.9,30.08,South,183,6.0,8.0,-999,-99.99,,,-99.99,,2013-03-13 22:52:00,
2013-03-13 16:02:00,74.0,-99.9,30.09,South,172,5.0,8.0,-999,-99.99,,,-99.99,,2013-03-13 23:02:00,
2013-03-13 16:12:00,74.0,-99.9,30.09,South,172,5.0,8.0,-999,-99.99,,,-99.99,,2013-03-13 23:12:00,
2013-03-13 16:22:00,74.0,-99.9,30.08,SSE,160,4.0,7.0,-999,-99.99,,,-99.99,,2013-03-13 23:22:00,
2013-03-13 16:32:00,74.0,-99.9,30.09,South,182,4.0,8.0,-999,-99.99,,,-99.99,,2013-03-13 23:32:00,
2013-03-13 16:43:00,74.0,-99.9,30.09,South,182,4.0,8.0,-999,-99.99,,,-99.99,,2013-03-13 23:43:00,
2013-03-13 16:52:00,74.0,-99.9,30.10,SSW,211,4.0,8.0,-999,-99.99,,,-99.99,,2013-03-13 23:52:00,
2013-03-13 17:00:00,74.0,-99.9,30.08,South,169,3.0,6.0,-999,-99.99,,,-99.99,,2013-03-14 00:00:00,
2013-03-13 17:02:00,74.0,-99.9,30.10,SSW,211,4.0,8.0,-999,-99.99,,,-99.99,,2013-03-14 00:02:00,
2013-03-13 17:13:00,74.0,-99.9,30.08,South,169,3.0,6.0,-999,-99.99,,,-99.99,,2013-03-14 00:13:00,
2013-03-13 17:22:00,74.0,-99.9,30.08,South,169,3.0,6.0,-999,-99.99,,,-99.99,,2013-03-14 00:22:00,
2013-03-13 17:33:00,74.0,-99.9,30.08,South,169,3.0,6.0,-999,-99.99,,,-99.99,,2013-03-14 00:33:00,
2013-03-13 17:43:00,74.0,-99.9,30.08,South,169,3.0,6.0,-999,-99.99,,,-99.99,,2013-03-14 00:43:00,
2013-03-13 17:53:00,74.0,-99.9,30.08,South,169,3.0,6.0,-999,-99.99,,,-99.99,,2013-03-14 00:53:00,
2013-03-13 18:23:00,74.0,-99.9,30.06,West,278,3.0,5.0,-999,-99.99,,,-99.99,,2013-03-14 01:23:00,
2013-03-13 18:33:00,74.0,-99.9,30.06,West,278,3.0,5.0,-999,-99.99,,,-99.99,,2013-03-14 01:33:00,
2013-03-13 18:42:00,74.0,-99.9,30.06,West,278,3.0,5.0,-999,-99.99,,,-99.99,,2013-03-14 01:42:00,
2013-03-13 18:53:00,73.0,-99.9,30.08,West,262,3.0,6.0,-999,-99.99,,,-99.99,,2013-03-14 01:53:00,
2013-03-13 19:02:00,72.0,-99.9,30.11,SSW,195,3.0,5.0,-999,-99.99,,,-99.99,,2013-03-14 02:02:00,
2013-03-13 19:12:00,72.0,-99.9,30.11,SSW,195,3.0,5.0,-999,-99.99,,,-99.99,,2013-03-14 02:12:00,
2013-03-13 19:22:00,72.0,-99.9,30.11,SSW,195,3.0,5.0,-999,-99.99,,,-99.99,,2013-03-14 02:22:00,
2013-03-13 19:33:00,70.0,-99.9,30.13,SSW,205,3.0,5.0,-999,-99.99,,,-99.99,,2013-03-14 02:33:00,
2013-03-13 19:42:00,70.0,-99.9,30.13,SSW,205,3.0,5.0,-999,-99.99,,,-99.99,,2013-03-14 02:42:00,
2013-03-13 19:52:00,70.0,-99.9,30.13,SSW,205,3.0,5.0,-999,-99.99,,,-99.99,,2013-03-14 02:52:00,
2013-03-13 20:02:00,68.0,-99.9,30.12,South,173,3.0,6.0,-999,-99.99,,,-99.99,,2013-03-14 03:02:00,
2013-03-13 20:12:00,68.0,-99.9,30.12,South,173,3.0,6.0,-999,-99.99,,,-99.99,,2013-03-14 03:12:00,
2013-03-13 20:23:00,68.0,-99.9,30.12,South,183,3.0,5.0,-999,-99.99,,,-99.99,,2013-03-14 03:23:00,
2013-03-13 20:33:00,67.0,-99.9,30.12,South,173,2.0,5.0,-999,-99.99,,,-99.99,,2013-03-14 03:33:00,
2013-03-13 20:42:00,67.0,-99.9,30.12,South,173,2.0,5.0,-999,-99.99,,,-99.99,,2013-03-14 03:42:00,
2013-03-13 20:53:00,67.0,-99.9,30.12,South,173,2.0,5.0,-999,-99.99,,,-99.99,,2013-03-14 03:53:00,
2013-03-13 21:12:00,66.0,-99.9,30.12,South,174,3.0,5.0,-999,-99.99,,,-99.99,,2013-03-14 04:12:00,
2013-03-13 21:22:00,66.0,-99.9,30.12,South,174,3.0,5.0,-999,-99.99,,,-99.99,,2013-03-14 04:22:00,
2013-03-13 21:53:00,64.0,-99.9,30.14,SSW,209,4.0,6.0,-999,-99.99,,,-99.99,,2013-03-14 04:53:00,
2013-03-13 22:02:00,63.0,-99.9,30.12,South,183,2.0,5.0,-999,-99.99,,,-99.99,,2013-03-14 05:02:00,
2013-03-13 22:13:00,63.0,-99.9,30.12,South,183,2.0,5.0,-999,-99.99,,,-99.99,,2013-03-14 05:13:00,
2013-03-13 22:22:00,63.0,-99.9,30.12,South,183,2.0,5.0,-999,-99.99,,,-99.99,,2013-03-14 05:22:00,
2013-03-13 22:33:00,63.0,-99.9,30.12,South,183,2.0,5.0,-999,-99.99,,,-99.99,,2013-03-14 05:33:00,
2013-03-13 22:43:00,63.0,-99.9,30.12,South,183,2.0,5.0,-999,-99.99,,,-99.99,,2013-03-14 05:43:00,
2013-03-13 22:53:00,63.0,-99.9,30.14,SSW,197,3.0,6.0,-999,-99.99,,,-99.99,,2013-03-14 05:53:00,
2013-03-13 23:02:00,61.0,-99.9,30.12,SSE,148,4.0,6.0,-999,-99.99,,,-99.99,,2013-03-14 06:02:00,
2013-03-13 23:12:00,61.0,-99.9,30.12,SSE,148,4.0,6.0,-999,-99.99,,,-99.99,,2013-03-14 06:12:00,
2013-03-13 23:22:00,61.0,-99.9,30.15,SSW,193,3.0,6.0,-999,-99.99,,,-99.99,,2013-03-14 06:22:00,
2013-03-13 23:33:00,61.0,-99.9,30.16,South,170,2.0,4.0,-999,-99.99,,,-99.99,,2013-03-14 06:33:00,
2013-03-13 23:42:00,61.0,-99.9,30.16,South,170,2.0,4.0,-999,-99.99,,,-99.99,,2013-03-14 06:42:00,
2013-03-13 23:52:00,60.0,-99.9,30.14,South,171,3.0,6.0,-999,-99.99,,,-99.99,,2013-03-14 06:52:00,